Vertical_Velocity
4 -1 15 10 7 6 5 1 4 9 1 2 -1 -1 1 -0 -0 1 -1 1 1 0
1 5 -3 8 7 8 7 1 2 10 7 1 1 -2 -2 0 4 -1 0 2 3 -1
0 4 3 5 12 11 15 12 6 3 4 1 2 1 -3 -1 -0 1 1 3 2 2
-0 -1 2 1 -1 2 4 34 11 9 2 6 22 8 2 -0 1 -2 2 3 1 1
3 2 2 -1 0 -11 1 -25 33 71 48 20 110 19 26 24 5 -0 10 1 -4 3
-0 2 0 12 -4 11 3 -8 -2 -18 -17 -10 -2 1 -22 -20 34 39 39 -3 14 7
3 4 -4 2 1 -4 1 -3 -2 6 -5 12 13 5 -0 -8 -11 -1 -6 -5 -5 1
2 1 -2 0 -4 -6 2 -2 3 5 -6 3 -2 -0 0 -5 4 0 -1 6 1 -1
1 4 -0 -0 -1 2 -0 -1 -2 -3 2 -3 -2 0 3 -1 1 -1 -1 -0 3 1
5 3 3 1 0 -1 -2 -0 -2 -6 13 2 2 2 3 -3 -1 0 1 0 1 1
41 -10 0 1 0 -1 -0 1 -4 -17 8 1 -2 -1 -3 3 2 2 -2 -1 -2 0
6 10 -8 2 -1 3 -1 -0 10 5 2 5 -2 2 2 2 -3 0 0 2 -0 0
0 -7 3 24 -2 -2 3 -8 -2 -3 2 -2 0 -4 6 0 -1 -5 -2 -3 -0 4
20 1 15 -4 -1 29 12 -2 2 3 -1 1 5 -4 3 -2 1 4 -1 -2 3 6
Height
3091 3098 3105 3110 3116 3122 3127 3133 3137 3142 3145 3149 3152 3156 3159 3162 3166 3169 3171 3173 3175 3176
3085 3091 3096 3103 3108 3115 3120 3125 3130 3135 3139 3142 3145 3149 3152 3155 3160 3163 3165 3168 3169 3171
3077 3083 3088 3095 3101 3107 3113 3118 3123 3126 3131 3134 3138 3141 3145 3150 3153 3156 3159 3161 3164 3166
3070 3075 3081 3087 3092 3097 3103 3105 3112 3117 3121 3125 3129 3134 3136 3141 3144 3148 3152 3155 3158 3160
3063 3067 3072 3077 3084 3089 3092 3095 3096 3102 3106 3107 3115 3126 3130 3132 3135 3138 3142 3146 3150 3153
3054 3059 3063 3070 3075 3078 3081 3087 3094 3094 3098 3101 3107 3115 3110 3116 3122 3127 3131 3134 3140 3142
3046 3052 3056 3062 3067 3071 3076 3080 3084 3089 3093 3097 3100 3105 3110 3115 3118 3121 3125 3128 3130 3131
3037 3043 3048 3054 3058 3063 3068 3073 3077 3081 3085 3090 3095 3099 3103 3107 3110 3112 3115 3116 3120 3123
3028 3034 3039 3045 3050 3055 3059 3063 3068 3072 3077 3081 3086 3090 3094 3097 3100 3102 3105 3107 3111 3113
3018 3025 3030 3036 3041 3046 3050 3055 3060 3063 3067 3073 3077 3080 3084 3087 3091 3094 3096 3098 3102 3104
3004 3015 3020 3026 3031 3036 3041 3046 3050 3055 3060 3064 3067 3071 3075 3079 3081 3084 3087 3090 3092 3095
2999 3004 3010 3015 3021 3026 3031 3037 3037 3043 3050 3053 3057 3061 3065 3068 3071 3074 3077 3080 3082 3084
2987 2994 2998 3001 3010 3016 3021 3026 3031 3035 3039 3042 3045 3049 3053 3056 3061 3065 3067 3070 3071 3073
2974 2981 2984 2992 2998 2999 3008 3014 3019 3024 3027 3031 3034 3039 3043 3046 3050 3052 3055 3057 3060 3062